FW1569 Weather Reports


time (UTC)temp
C
wind
direction
speed
KPH
gust
KPH
rain 1hr
cm
rain 24hr
cm
rain mn
cm
humidity
%
barometer
mb
20260906230017 18 202 3.2 16.1 0.00 0.00 0.00 37 1024.2
20260906223017 18 240 3.2 19.3 0.00 0.00 0.00 37 1024.8
20260906220016 19 251 4.8 19.3 0.00 0.00 0.00 35 1024.4
20260906213016 20 224 4.8 19.3 0.00 0.00 0.00 34 1024.7
20260906210016 20 210 4.8 24.1 0.00 0.00 0.00 30 1025.7
20260906203017 20 188 6.4 27.4 0.00 0.00 0.00 31 1025.2
20260906200016 20 188 6.4 27.4 0.00 0.00 0.00 30 1025.4
20260906193017 19 198 6.4 19.3 0.00 0.00 0.00 29 1025.5
20260906190016 20 151 4.8 24.1 0.00 0.00 0.00 27 1026.1
20260906183016 18 150 8.0 24.1 0.00 0.00 0.00 33 1026.1
20260906180016 19 185 4.8 20.9 0.00 0.00 0.00 31 1027.0
20260906173016 20 173 6.4 20.9 0.00 0.00 0.00 30 1027.9
20260906170016 19 202 4.8 17.7 0.00 0.00 0.00 31 1028.6
20260906163016 19 257 3.2 17.7 0.00 0.00 0.00 36 1029.0
20260906160016 17 156 3.2 16.1 0.00 0.00 0.00 38 1028.7
20260906153036 16 190 3.2 8.0 0.00 0.00 0.00 40 1028.5
20260906150036 15 199 3.2 8.0 0.00 0.00 0.00 44 1028.1
20260906143016 13 200 1.6 6.4 0.00 0.00 0.00 50 1028.2
20260906140016 11 201 0.0 6.4 0.00 0.00 0.00 59 1027.7
20260906133015 8 201 1.6 6.4 0.00 0.00 0.00 57 1026.6
20260906130016 7 201 1.6 9.7 0.00 0.00 0.00 58 1025.8
20260906123016 8 200 1.6 9.7 0.00 0.00 0.00 57 1026.3
20260906120016 8 201 1.6 9.7 0.00 0.00 0.00 54 1027.0
20260906113015 8 200 3.2 6.4 0.00 0.00 0.00 54 1027.1
20260906110015 9 201 1.6 8.0 0.00 0.00 0.00 51 1027.8
20260906103016 9 197 1.6 8.0 0.00 0.00 0.00 50 1028.2
20260906100036 10 193 1.6 6.4 0.00 0.00 0.00 49 1028.3
20260906093015 10 193 3.2 6.4 0.00 0.00 0.00 50 1028.2
20260906090015 10 193 1.6 6.4 0.00 0.00 0.00 50 1028.2
20260906083015 10 193 3.2 6.4 0.00 0.00 0.00 49 1027.4
20260906080015 10 193 3.2 6.4 0.00 0.00 0.00 49 1027.7
20260906073015 10 193 3.2 6.4 0.00 0.00 0.00 48 1028.2
20260906070015 10 193 1.6 6.4 0.00 0.00 0.00 47 1027.7
20260906063015 10 193 1.6 6.4 0.00 0.00 0.00 47 1027.9
20260906060015 11 193 3.2 6.4 0.00 0.00 0.00 45 1027.0
20260906053015 11 193 1.6 6.4 0.00 0.00 0.00 45 1027.6
20260906050016 12 193 1.6 8.0 0.00 0.00 0.00 43 1027.7
20260906043015 13 193 1.6 8.0 0.00 0.00 0.00 42 1028.0
20260906040015 13 193 1.6 8.0 0.00 0.00 0.00 43 1028.0
20260906033015 13 193 3.2 8.0 0.00 0.00 0.00 42 1027.9
20260906030015 14 193 1.6 8.0 0.00 0.00 0.00 40 1026.4
20260906023016 15 193 1.6 8.0 0.00 0.00 0.00 40 1025.0
20260906020015 16 193 1.6 12.9 0.00 0.00 0.00 38 1024.2
20260906013015 17 210 3.2 14.5 0.00 0.00 0.00 36 1024.7
20260906010015 17 210 3.2 16.1 0.00 0.00 0.00 34 1025.4
20260906003017 18 197 3.2 22.5 0.00 0.00 0.00 33 1025.2
20260906000037 19 164 6.4 22.5 0.00 0.00 0.00 31 1025.6
20260905233017 20 166 8.0 22.5 0.00 0.00 0.00 31 1026.1